Home > Weather > Faro > Past weeks

Flag for Portugal Past Weather in Faro, Portugal — Yesterday and Last 2 Weeks

Now
73 °F

Clear.


Feels Like: 70 °F
Forecast: 69 / 88 °F
Wind: 6 mph from Southwest

Location: Faro / Aeroporto

Current Time: Jul 24, 2016 at 12:10:29 AM

Latest Report: Jul 23, 2016 at 11:30 PM


Visibility: 10 mi

Pressure: 29.95 "Hg

Humidity: 94%

Dew Point: 72 °F

Location of FaroLocation

Past Weather in Faro — Graph

°F

Faro Temperature Yesterday

Maximum temperature yesterday: 86 °F (at 12:30 PM)
Minimum temperature yesterday: 72 °F (at 6:00 AM)
Average temperature yesterday: 78 °F

High & Low Weather Summary for the Past Weeks

 TemperatureHumidityPressure
High99 °F (Jul 11, 6:00 PM)89% (Jul 23, 9:30 PM)30.07 "Hg (Jul 23, 9:30 PM)
Low64 °F (Jul 13, 6:30 AM)11% (Jul 12, 5:00 PM)29.89 "Hg (Jul 9, 8:00 PM)
Average80 °F52%29.97 "Hg
* Reported Jul 8 10:00 PM — Jul 23 10:30 PM, Faro, Weather by CustomWeather, © 2016

Note: Actual official high and low records may vary slightly from our data, if they occured in-between our weather recording intervals... More about our weather records

Advertising

Faro Weather History for the Previous 24 Hours

Scroll right to see more
 ConditionsComfort  
Time TempWeatherWind HumidityBarometerVisibility
10:30 PM
Sat, Jul 23
75 °FClear.7 mph83%29.95 "Hg10 mi
10:00 PM75 °FClear.8 mph89%29.95 "Hg10 mi
9:30 PM75 °FSunny.8 mph89%29.92 "Hg10 mi
9:00 PM75 °FSunny.8 mph83%29.92 "Hg10 mi
8:30 PM77 °FSunny.7 mph83%29.92 "Hg10 mi
8:00 PM77 °FSunny.7 mph83%29.92 "Hg10 mi
7:30 PM77 °FSunny.8 mph83%29.92 "Hg10 mi
7:00 PM77 °FSunny.8 mph83%29.95 "Hg10 mi
6:30 PM77 °FPassing clouds.7 mph79%29.95 "HgN/A
6:00 PM79 °FPassing clouds.6 mph74%29.95 "HgN/A
5:30 PM79 °FPassing clouds.5 mph70%29.95 "HgN/A
5:00 PM79 °FPassing clouds.5 mph70%29.98 "HgN/A
4:30 PM79 °FPassing clouds.7 mph70%29.98 "HgN/A
4:00 PM81 °FSunny.10 mph66%29.98 "Hg10 mi
3:30 PM81 °FSunny.12 mph66%29.98 "Hg10 mi
3:00 PM81 °FSunny.10 mph70%29.98 "Hg10 mi
2:30 PM81 °FSunny.13 mph74%29.98 "Hg10 mi
2:00 PM81 °FSunny.15 mph70%29.98 "Hg10 mi
1:30 PM82 °FSunny.14 mph66%29.98 "Hg10 mi
1:00 PM84 °FSunny.15 mph55%29.98 "Hg10 mi
12:30 PM86 °FSunny.15 mph49%29.98 "Hg10 mi
12:00 PM84 °FSunny.14 mph51%29.98 "Hg10 mi
11:30 AM81 °FPassing clouds.12 mph62%29.98 "HgN/A
11:00 AM79 °FSunny.12 mph65%29.98 "Hg10 mi
10:30 AM81 °FSunny.10 mph58%29.98 "Hg10 mi
10:00 AM81 °FSunny.8 mph54%29.98 "Hg10 mi
9:30 AM82 °FSunny.6 mph51%29.98 "Hg10 mi
9:00 AM79 °FSunny.5 mph54%29.95 "Hg10 mi
8:30 AM79 °FSunny.6 mph58%29.95 "Hg10 mi
8:00 AM82 °FPassing clouds.3 mph40%29.95 "HgN/A
7:30 AM77 °FPassing clouds.6 mph61%29.95 "HgN/A
7:00 AM72 °FClear.6 mph73%29.95 "Hg10 mi
6:30 AM72 °FClear.6 mph73%29.95 "Hg10 mi
6:00 AM72 °FClear.7 mph78%29.95 "Hg10 mi
5:30 AM73 °FClear.2 mph74%29.95 "Hg10 mi
5:00 AM75 °FClear.3 mph61%29.95 "Hg10 mi
4:30 AM77 °FClear.7 mph57%29.95 "Hg10 mi
4:00 AM73 °FPassing clouds.3 mph65%29.95 "HgN/A
3:30 AM77 °FClear.6 mph54%29.95 "Hg10 mi
3:00 AM77 °FClear.7 mph54%29.95 "Hg10 mi
2:30 AM77 °FClear.8 mph54%29.95 "Hg10 mi
2:00 AM77 °FClear.9 mph54%29.95 "Hg10 mi
1:30 AM77 °FClear.7 mph54%29.95 "Hg10 mi
1:00 AM77 °FClear.10 mph54%29.98 "Hg10 mi
12:30 AM77 °FClear.12 mph57%29.98 "Hg10 mi
12:00 AM77 °FClear.10 mph57%29.98 "Hg10 mi
Weather by CustomWeather, © 2016

See weather overviewHow to use our weather pages